千帆星座-60 (QIANFAN-60)

导读

QIANFAN-60 是中国自主研发的北斗卫星导航系统中的关键成员,主要用于提供高精度定位、导航和授时服务。该卫星采用先进技术和稳定平台,增强了系统的覆盖范围和信号质量。QIANFAN-60 的成功发射进一步提升了北斗系统在全球范围内的竞争力和可靠性,广泛应用于交通、通信、气象和应急救援等领域,为国家的信息化建设和国家安全提供了有力支撑。

Basic Information
目录编号:
62790
目录名称:
QIANFAN-60
国际标识:
2025-016F
轨道中心:
EARTH
卫星名称:
千帆星座-60
卫星全名:
千帆星座-60 (QIANFAN-60)
卫星状态:
在轨 (已飞行506 天)
发射日期:
2025-01-23 UTC
国别 :
中国 (CN)
星等 :
--
Orbit Information
数据来源 国际轨道数据 AOE轨道数据
星历时间 2026-06-13T03:51:38+0800
6小时前
查看轨道信息
2026-06-11T08:00:00+0800
2天前
查看轨道信息
半长轴 7446.669km 7446.675km
偏心率 0.0015474 0.0015509
轨道倾角 88.972° 88.968°
近地点辐角 169.047° 174.965°
升交点赤经 84.156° 84.351°
平近点角 191.102° 302.059°
近地点 1057.009km 1056.988km
远地点 1080.055km 1080.088km
周期 106.587分钟 106.587分钟
每日圈数 13.510135 13.51012
Detailed Information
卫星平台:
60
覆盖范围:
全球
运营商:
上海垣信卫星科技有限公司
运营商所在国:
中国
使用方式:
暂无
Satellite Introduction
千帆星座,也被称为“G60星链”计划,是中国版“星链”的重要组成部分,旨在打造一个由1.4万多颗低轨宽频多媒体卫星构成的庞大星座。千帆星座计划由上海垣信卫星科技有限公司负责实施,于2023年启动建设。该项目是我国第二个低轨卫星大星座,旨在通过构建庞大的卫星网络,为全球用户提供高质量的通信和宽带互联网服务。
2D Orbit Map
3D Orbit Map
Orbit Altitude Analysis Chart
Orbit Inclination Analysis Chart
Orbit Comprehensive Analysis Chart
View Comprehensive Chart